Hancock, MI

2:20 AM EDT on August 26, 2016 (GMT -0400)
Houghton County Memorial

Weather History for KCMX - March, 2013

Change the Weather History Date:

Tuesday, March 12, 2013

  Actual Average Record
Temperature  
Mean Temperature 17 °F -  
Max Temperature 19 °F 29 °F 55 °F (2016)
Min Temperature 15 °F 13 °F -10 °F (1984)
Degree Days  
Heating Degree Days 48    
Moisture  
Dew Point 13 °F    
Average Humidity 82    
Maximum Humidity 93    
Minimum Humidity 62    
Precipitation  
Precipitation 0.07 in - - ()
Sea Level Pressure  
Sea Level Pressure 29.76 in    
Wind  
Wind Speed 11 mph (NNW)    
Max Wind Speed 22 mph    
Max Gust Speed 30 mph    
Visibility 2 miles    
Events Fog , Snow    
Averages and records for this station are not official NWS values.
T = Trace of Precipitation, MM = Missing Value Source: NWS Daily Summary

Daily Weather History Graph

Daily Weather History Graph

Search for Another Location

Airport or City:

Trip Planner

Search our weather history database for the weather conditions in past years. The results will help you decide how hot, cold, wet, or windy it might be!

Date:

Astronomy

Mar. 12, 2013 Rise Set
Actual Time 8:12 AM EDT 7:55 PM EDT
Civil Twilight 7:41 AM EDT 8:26 PM EDT
Nautical Twilight 7:06 AM EDT 9:01 PM EDT
Astronomical Twilight 6:30 AM EDT 9:37 PM EDT
Moon 8:12 AM EDT (3/12) 9:18 PM EDT (3/12)
Length of Visible Light 12h 44m
Length of Day
11h 43m
New Moon, 1% of the Moon is Illuminated
Mar 12
New Moon
Mar 19
First Quarter
Mar 27
Full
Apr 3
Last Quarter
Apr 10
New

Hourly Weather History & Observations

Time (EDT) Temp. Windchill Dew Point Humidity Pressure Visibility Wind Dir Wind Speed Gust Speed Precip Events Conditions
12:42 AM 19.4 °F 9.5 °F 17.6 °F 93% 29.62 in 3.0 mi North 8.1 mph - 0.00 in Snow Light Snow
12:53 AM 19.9 °F 11.1 °F 16.0 °F 85% 29.68 in 3.0 mi North 6.9 mph - 0.00 in Snow Light Snow
1:38 AM 19.4 °F 7.9 °F 17.6 °F 93% 29.62 in 3.0 mi NNW 10.4 mph - 0.00 in Snow Light Snow
1:53 AM 19.9 °F 7.9 °F 16.0 °F 85% 29.68 in 4.0 mi North 11.5 mph - 0.00 in Snow Light Snow
2:46 AM 19.4 °F 9.5 °F 15.8 °F 86% 29.63 in 3.0 mi North 8.1 mph - 0.00 in Snow Light Snow
2:53 AM 19.9 °F 10.1 °F 16.0 °F 85% 29.69 in 3.0 mi NNW 8.1 mph - 0.00 in Snow Light Snow
3:21 AM 19.4 °F 7.2 °F 15.8 °F 86% 29.64 in 2.5 mi North 11.5 mph - 0.00 in Snow Light Snow
3:46 AM 19.4 °F 7.2 °F 15.8 °F 86% 29.64 in 2.5 mi NNW 11.5 mph - 0.00 in Snow Light Snow
3:53 AM 19.0 °F 9.0 °F 16.0 °F 88% 29.70 in 1.8 mi NNW 8.1 mph - 0.00 in Snow Light Snow
4:10 AM 19.4 °F 7.9 °F 15.8 °F 86% 29.64 in 2.5 mi NNW 10.4 mph - 0.00 in Snow Light Snow
4:17 AM 19.4 °F 6.6 °F 15.8 °F 86% 29.64 in 3.0 mi NNW 12.7 mph - 0.00 in Snow Light Snow
4:29 AM 19.4 °F 8.6 °F 15.8 °F 86% 29.64 in 3.0 mi NNW 9.2 mph - N/A Snow Light Snow
4:53 AM 19.0 °F 6.8 °F 15.1 °F 85% 29.69 in 3.0 mi NNW 11.5 mph - 0.00 in Snow Light Snow
5:10 AM 17.6 °F 7.3 °F 14.0 °F 86% 29.64 in 2.5 mi NNW 8.1 mph - 0.00 in Snow Light Snow
5:40 AM 17.6 °F 5.7 °F 14.0 °F 86% 29.64 in 2.0 mi NNW 10.4 mph - 0.00 in Snow Light Snow
5:53 AM 18.0 °F 6.1 °F 14.0 °F 84% 29.70 in 2.0 mi NNW 10.4 mph - 0.00 in Snow Light Snow
5:58 AM 17.6 °F 5.0 °F 14.0 °F 86% 29.65 in 1.8 mi NNW 11.5 mph - 0.01 in Snow Light Snow
6:08 AM 17.6 °F 4.3 °F 14.0 °F 86% 29.65 in 2.5 mi NW 12.7 mph - 0.01 in Snow Light Snow
6:21 AM 17.6 °F 5.7 °F 12.2 °F 79% 29.65 in 3.0 mi NNW 10.4 mph - 0.01 in Snow Light Snow
6:27 AM 17.6 °F 5.0 °F 14.0 °F 86% 29.65 in 2.5 mi NNW 11.5 mph - 0.01 in Snow Light Snow
6:36 AM 17.6 °F 5.7 °F 12.2 °F 79% 29.66 in 4.0 mi NNW 10.4 mph - 0.01 in Snow Light Snow
6:53 AM 17.1 °F 3.6 °F 12.9 °F 84% 29.72 in 3.0 mi NNW 12.7 mph - 0.01 in Snow Light Snow
7:11 AM 17.6 °F 4.3 °F 12.2 °F 79% 29.67 in 2.5 mi NNW 12.7 mph - 0.00 in Snow Light Snow
7:30 AM 15.8 °F 3.4 °F 12.2 °F 86% 29.67 in 1.5 mi NNW 10.4 mph - 0.00 in Snow Light Snow
7:53 AM 16.0 °F 4.4 °F 12.9 °F 88% 29.74 in 1.8 mi NNW 9.2 mph - 0.00 in Snow Light Snow
8:01 AM 15.8 °F 2.1 °F 12.2 °F 86% 29.68 in 2.5 mi NNW 12.7 mph - N/A Snow Light Snow
8:39 AM 15.8 °F 4.2 °F 12.2 °F 86% 29.68 in 3.0 mi NNW 9.2 mph - 0.00 in Snow Light Snow
8:53 AM 16.0 °F 4.4 °F 10.9 °F 81% 29.75 in 3.0 mi NNW 9.2 mph - 0.00 in Snow Light Snow
9:11 AM 15.8 °F 4.2 °F 10.4 °F 79% 29.69 in 1.8 mi NNW 9.2 mph - 0.00 in Snow Light Snow
9:21 AM 15.8 °F 3.4 °F 10.4 °F 79% 29.69 in 2.5 mi NNW 10.4 mph - 0.00 in Snow Light Snow
9:33 AM 15.8 °F 2.7 °F 10.4 °F 79% 29.69 in 1.8 mi NNW 11.5 mph - 0.00 in Snow Light Snow
9:53 AM 15.1 °F 3.3 °F 10.9 °F 84% 29.76 in 1.5 mi NNW 9.2 mph - 0.00 in Snow Light Snow
10:53 AM 15.1 °F 1.1 °F 10.0 °F 80% 29.77 in 1.5 mi NNW 12.7 mph - 0.00 in Snow Light Snow
11:22 AM 15.8 °F 4.2 °F 8.6 °F 73% 29.71 in 2.5 mi NNW 9.2 mph - 0.00 in Snow Light Snow
11:43 AM 15.8 °F 2.7 °F 8.6 °F 73% 29.72 in 4.0 mi North 11.5 mph - 0.00 in Snow Light Snow
11:53 AM 15.1 °F 1.1 °F 8.1 °F 74% 29.78 in 4.0 mi NNW 12.7 mph 18.4 mph 0.00 in Snow Light Snow
12:43 PM 15.8 °F 1.4 °F 8.6 °F 73% 29.73 in 4.0 mi NNW 13.8 mph - 0.00 in Snow Light Snow
12:53 PM 16.0 °F 3.6 °F 8.1 °F 71% 29.80 in 4.0 mi NNW 10.4 mph - 0.00 in Snow Light Snow
1:05 PM 15.8 °F 1.4 °F 10.4 °F 79% 29.74 in 1.8 mi NNW 13.8 mph 19.6 mph 0.00 in Snow Light Snow
1:13 PM 15.8 °F 2.1 °F 10.4 °F 79% 29.74 in 2.5 mi NW 12.7 mph - 0.00 in Snow Light Snow
1:21 PM 15.8 °F 2.7 °F 8.6 °F 73% 29.74 in 4.0 mi NW 11.5 mph - 0.00 in Snow Light Snow
1:35 PM 15.8 °F 1.4 °F 10.4 °F 79% 29.75 in 1.8 mi NW 13.8 mph - 0.00 in Snow Light Snow
1:53 PM 16.0 °F 1.1 °F 10.9 °F 81% 29.81 in 0.8 mi NW 15.0 mph - 0.00 in Snow Light Snow
1:58 PM 15.8 °F 2.1 °F 10.4 °F 79% 29.75 in 0.2 mi NW 12.7 mph - 0.00 in Snow Heavy Snow
2:11 PM 15.8 °F 2.7 °F 12.2 °F 86% 29.75 in 0.8 mi NW 11.5 mph - 0.00 in Snow Light Snow
2:16 PM 15.8 °F 2.1 °F 10.4 °F 79% 29.75 in 1.0 mi NW 12.7 mph - 0.00 in Snow Light Snow
2:49 PM 17.6 °F 4.3 °F 12.2 °F 79% 29.75 in 0.8 mi NNW 12.7 mph - 0.00 in Snow Light Snow
2:53 PM 17.1 °F 2.5 °F 12.0 °F 81% 29.81 in 0.5 mi NW 15.0 mph - 0.00 in Snow Snow
3:03 PM 15.8 °F 1.4 °F 12.2 °F 86% 29.75 in 0.2 mi NW 13.8 mph - 0.00 in Fog , Snow Heavy Snow
3:36 PM 17.6 °F 1.7 °F 12.2 °F 79% 29.76 in 0.5 mi NW 18.4 mph - 0.01 in Snow Snow
3:44 PM 17.6 °F 2.2 °F 12.2 °F 79% 29.76 in 0.2 mi NW 17.3 mph - 0.01 in Snow Heavy Snow
3:53 PM 17.1 °F 2.5 °F 12.9 °F 84% 29.83 in 0.5 mi NW 15.0 mph 21.9 mph 0.01 in Fog , Snow Snow
4:09 PM 17.6 °F 3.2 °F 12.2 °F 79% 29.78 in 0.8 mi NNW 15.0 mph - 0.00 in Snow Light Snow
4:20 PM 17.6 °F 3.2 °F 12.2 °F 79% 29.78 in 1.0 mi NW 15.0 mph - 0.00 in Snow Light Snow
4:53 PM 18.0 °F 4.2 °F 12.9 °F 81% 29.86 in 0.8 mi NNW 13.8 mph - 0.00 in Snow Light Snow
5:03 PM 17.6 °F 5.7 °F 12.2 °F 79% 29.80 in 0.5 mi NNW 10.4 mph - 0.00 in Fog , Snow Snow
5:53 PM 17.1 °F 3.6 °F 12.9 °F 84% 29.88 in 0.2 mi NNW 12.7 mph - 0.01 in Fog , Snow Heavy Snow
6:07 PM 17.6 °F 7.3 °F 14.0 °F 86% 29.82 in 0.2 mi NNW 8.1 mph - 0.01 in Fog , Snow Snow
6:43 PM 17.6 °F 4.3 °F 14.0 °F 86% 29.83 in 0.5 mi North 12.7 mph - 0.03 in Fog , Snow Snow
6:53 PM 18.0 °F 4.8 °F 14.0 °F 84% 29.90 in 0.5 mi North 12.7 mph - 0.03 in Fog , Snow Light Snow
7:09 PM 17.6 °F 2.7 °F 15.8 °F 93% 29.84 in 0.2 mi North 16.1 mph 21.9 mph 0.00 in Fog , Snow Snow
7:18 PM 17.6 °F 3.7 °F 14.0 °F 86% 29.85 in 0.5 mi North 13.8 mph 19.6 mph 0.00 in Fog , Snow Light Snow
7:33 PM 17.6 °F 2.7 °F 15.8 °F 93% 29.85 in 0.2 mi North 16.1 mph 29.9 mph 0.00 in Fog , Snow Snow
7:40 PM 17.6 °F 2.7 °F 15.8 °F 93% 29.86 in 0.8 mi North 16.1 mph 23.0 mph 0.00 in Snow Light Snow
7:53 PM 18.0 °F 2.6 °F 14.0 °F 84% 29.93 in 0.8 mi North 17.3 mph 24.2 mph 0.00 in Snow Light Snow
8:07 PM 17.6 °F 1.7 °F 14.0 °F 86% 29.87 in 1.0 mi North 18.4 mph 26.5 mph 0.00 in Snow Light Snow
8:22 PM 17.6 °F 1.3 °F 14.0 °F 86% 29.88 in 0.8 mi North 19.6 mph 26.5 mph 0.00 in Snow Light Snow
8:53 PM 18.0 °F 2.6 °F 15.1 °F 88% 29.96 in 0.5 mi North 17.3 mph 26.5 mph 0.00 in Fog Light Freezing Fog
9:05 PM 17.6 °F 2.2 °F 14.0 °F 86% 29.90 in 1.0 mi North 17.3 mph 24.2 mph 0.01 in   Overcast
9:21 PM 17.6 °F 4.3 °F 12.2 °F 79% 29.90 in 2.0 mi North 12.7 mph 23.0 mph 0.01 in   Haze
9:30 PM 17.6 °F 2.2 °F 12.2 °F 79% 29.91 in 2.0 mi North 17.3 mph 26.5 mph 0.01 in Snow Light Snow
9:42 PM 19.4 °F 2.8 °F 10.4 °F 68% 29.91 in 3.0 mi North 21.9 mph 26.5 mph 0.01 in Snow Light Snow
9:53 PM 18.0 °F 2.6 °F 10.9 °F 74% 29.98 in 2.5 mi North 17.3 mph 27.6 mph 0.01 in Snow Light Snow
10:20 PM 17.6 °F 2.2 °F 12.2 °F 79% 29.92 in 1.2 mi North 17.3 mph 27.6 mph 0.00 in Snow Light Snow
10:37 PM 17.6 °F 3.2 °F 10.4 °F 73% 29.92 in 3.0 mi North 15.0 mph 29.9 mph 0.00 in Snow Light Snow
10:53 PM 19.0 °F 4.0 °F 9.0 °F 65% 29.99 in 6.0 mi North 17.3 mph 24.2 mph 0.00 in Snow Light Snow
11:53 PM 19.0 °F 3.2 °F 8.1 °F 62% 30.00 in 8.0 mi North 19.6 mph 26.5 mph 0.00 in   Overcast